Regional Weather Roundup
Issued by NWS Glasgow, MT

Home | Current Version | Previous Version | Text Only | Print | Product List | Glossary On
Versions: 1 2 3 4 5 6 7 8 9 10 11 12 13 14 15 16 17 18 19 20 21 22 23 24 25 26 27 28 29 30 31 32 33 34 35 36 37 38 39 40 41 42 43 44 45 46 47 48 49 50
000
ASUS45 KGGW 280815
RWRGGW
HOURLY WEATHER ROUNDUP FOR NORTHEAST MONTANA
NATIONAL WEATHER SERVICE GLASGOW MONTANA
100 AM MST SUN DEC 28 2014

NOTE: "FAIR" INDICATES FEW OR NO CLOUDS BELOW 12,000 FEET WITH NO
SIGNIFICANT WEATHER AND/OR OBSTRUCTIONS TO VISISBILITY.

NORTHEAST MONTANA


CITY           SKY/WX    TMP DP  RH WIND       PRES   REMARKS
GLASGOW        MOCLDY    20  16  84 E13       29.92R
PLENTYWOOD       N/A    N/A N/A N/A N12         N/A
WOLF POINT     CLOUDY    19  14  81 E13       29.97S
JORDAN           N/A     23  20  88 CALM      29.87F
WINNETT          N/A     19  16  88 S1          N/A
SIDNEY         CLOUDY    19  18  93 N9        29.98S
GLENDIVE       CLOUDY    19  16  86 SE3       29.92F
SCOBEY           N/A     14   6  70 E10       29.94

FORT PECK REPORTS


CITY           SKY/WX    TMP DP  RH WIND       PRES   REMARKS
FORT PECK        N/A     19  18  95 NE12        N/A
THE PINES        N/A     26  23  88 N2          N/A

SOUTHEAST MONTANA


CITY           SKY/WX    TMP DP  RH WIND       PRES   REMARKS
BILLINGS       CLOUDY    24  11  57 SW15      29.86F
MILES CITY     CLOUDY    22  18  85 SE6       29.91F
BAKER          CLEAR     20  13  74 SW10      29.91F
LIVINGSTON     LGT SNOW  26  17  68 SW38G48   29.80R

CENTRAL MONTANA


CITY           SKY/WX    TMP DP  RH WIND       PRES   REMARKS
HAVRE          CLOUDY    21  18  88 E9        29.86S
LEWISTOWN      LGT SNOW  24  20  84 E3        29.80F FOG
GREAT FALLS    CLOUDY    28  23  81 S13       29.76F
CUT BANK       LGT SNOW  25  23  92 N5        29.78S FOG
HELENA         CLOUDY    22  18  85 SW3       29.82S
BUTTE          CLOUDY    20  15  81 NW5       29.81F
BOZEMAN        CLOUDY    20  18  92 SW3       29.87S

WESTERN MONTANA


CITY           SKY/WX    TMP DP  RH WIND       PRES   REMARKS
MISSOULA       CLOUDY    30  26  85 S16       29.85F
KALISPELL      NOT AVBL

NORTH DAKOTA


CITY           SKY/WX    TMP DP  RH WIND       PRES   REMARKS
WILLISTON      CLOUDY    17  12  80 NE8       30.00F
DICKINSON      CLOUDY    19  14  81 CALM      29.92F
MINOT          LGT SNOW   4  -2  76 N10       30.07F WCI -11
BISMARCK       CLOUDY    16  14  92 NE3       30.04S

SOUTHERN SASKATCHEWAN


CITY           SKY/WX    TMP DP  RH WIND       PRES   REMARKS
REGINA         MOCLDY    -4  -9  77 E6        30.08S
ESTEVAN        CLOUDY     3  -2  78 E10       30.06R WCI -12
SWIFT CURRENT  FLURRIES  10   9  92 E16G22    29.93R WCI  -7



USA.gov is the U.S. government's official web portal to all federal, state and local government web resources and services.